| time (UTC) | temp C | wind direction | speed KPH | gust KPH | rain 1hr cm | rain 24hr cm | rain mn cm | humidity % | barometer mb |
| 20260508020504 | 7 | 273 | 0.0 | 0.0 | 0.00 | 0.00 | 0.00 | 67 | 1007.9 |
| 20260508020003 | 7 | 273 | 0.0 | 0.0 | 0.00 | 0.00 | 0.00 | 65 | 1007.9 |
| 20260508015504 | 7 | 273 | 0.0 | 0.0 | 0.00 | 0.00 | 0.00 | 65 | 1007.9 |
| 20260508015003 | 7 | 273 | 0.0 | 0.0 | 0.00 | 0.00 | 0.00 | 65 | 1007.8 |
| 20260508014503 | 7 | 273 | 0.0 | 0.0 | 0.00 | 0.00 | 0.00 | 65 | 1007.8 |
| 20260508014004 | 7 | 274 | 0.0 | 0.0 | 0.00 | 0.00 | 0.00 | 64 | 1007.8 |
| 20260508013503 | 8 | 275 | 0.0 | 0.0 | 0.00 | 0.00 | 0.00 | 62 | 1007.7 |
| 20260508012004 | 8 | 274 | 0.0 | 0.0 | 0.00 | 0.00 | 0.00 | 61 | 1007.7 |
| 20260508011503 | 8 | 273 | 0.0 | 0.0 | 0.00 | 0.00 | 0.00 | 61 | 1007.7 |
| 20260508010503 | 8 | 273 | 0.0 | 0.0 | 0.00 | 0.00 | 0.00 | 59 | 1007.7 |
| 20260508010003 | 8 | 274 | 0.0 | 0.0 | 0.00 | 0.00 | 0.00 | 58 | 1007.7 |
| 20260508005503 | 8 | 274 | 0.0 | 0.0 | 0.00 | 0.00 | 0.00 | 57 | 1007.7 |
| 20260508005003 | 9 | 273 | 0.0 | 0.0 | 0.00 | 0.00 | 0.00 | 56 | 1007.6 |
| 20260508004503 | 9 | 274 | 0.0 | 0.0 | 0.00 | 0.00 | 0.00 | 56 | 1007.6 |
| 20260508003504 | 10 | 273 | 0.0 | 0.0 | 0.00 | 0.00 | 0.00 | 54 | 1007.4 |
| 20260508003003 | 10 | 273 | 0.0 | 0.0 | 0.00 | 0.00 | 0.00 | 52 | 1007.4 |
| 20260508002003 | 10 | 274 | 0.0 | 0.0 | 0.00 | 0.00 | 0.00 | 51 | 1007.3 |
| 20260508001504 | 10 | 273 | 0.0 | 0.0 | 0.00 | 0.00 | 0.00 | 51 | 1007.3 |
| 20260508001003 | 10 | 274 | 0.0 | 0.0 | 0.00 | 0.00 | 0.00 | 50 | 1007.3 |
| 20260508000504 | 10 | 272 | 0.0 | 11.3 | 0.00 | 0.00 | 0.00 | 50 | 1007.3 |
| 20260508000004 | 10 | 271 | 3.2 | 9.7 | 0.00 | 0.00 | 0.00 | 49 | 1007.2 |
| 20260507235504 | 10 | 269 | 3.2 | 9.7 | 0.00 | 0.00 | 0.00 | 48 | 1007.2 |
| 20260507235004 | 10 | 267 | 8.0 | 14.5 | 0.00 | 0.00 | 0.00 | 47 | 1007.2 |
| 20260507234503 | 10 | 281 | 4.8 | 14.5 | 0.00 | 0.00 | 0.00 | 48 | 1007.2 |
| 20260507234003 | 10 | 256 | 8.0 | 14.5 | 0.00 | 0.00 | 0.00 | 47 | 1007.1 |
| 20260507233503 | 10 | 280 | 4.8 | 14.5 | 0.00 | 0.00 | 0.00 | 47 | 1007.1 |
| 20260507232503 | 10 | 266 | 8.0 | 19.3 | 0.00 | 0.00 | 0.00 | 47 | 1007.0 |
| 20260507232004 | 10 | 291 | 4.8 | 16.1 | 0.00 | 0.00 | 0.00 | 47 | 1007.0 |
| 20260507231503 | 10 | 229 | 4.8 | 11.3 | 0.00 | 0.00 | 0.00 | 48 | 1007.0 |
| 20260507231004 | 10 | 264 | 4.8 | 14.5 | 0.00 | 0.00 | 0.00 | 48 | 1007.1 |
| 20260507230503 | 10 | 262 | 6.4 | 16.1 | 0.00 | 0.00 | 0.00 | 47 | 1007.1 |
| 20260507230004 | 10 | 262 | 4.8 | 16.1 | 0.00 | 0.00 | 0.00 | 47 | 1007.1 |
| 20260507225503 | 11 | 281 | 9.7 | 19.3 | 0.00 | 0.00 | 0.00 | 46 | 1007.1 |
| 20260507224504 | 11 | 261 | 11.3 | 22.5 | 0.00 | 0.00 | 0.00 | 45 | 1007.1 |
| 20260507223503 | 11 | 289 | 9.7 | 19.3 | 0.00 | 0.00 | 0.00 | 45 | 1007.1 |
| 20260507223004 | 11 | 260 | 11.3 | 22.5 | 0.00 | 0.00 | 0.00 | 46 | 1007.1 |
| 20260507221503 | 11 | 280 | 14.5 | 22.5 | 0.00 | 0.00 | 0.00 | 46 | 1007.1 |
| 20260507221003 | 11 | 291 | 9.7 | 19.3 | 0.00 | 0.00 | 0.00 | 47 | 1007.1 |
| 20260507220503 | 11 | 272 | 9.7 | 20.9 | 0.00 | 0.00 | 0.00 | 47 | 1007.1 |
| 20260507220003 | 11 | 280 | 9.7 | 22.5 | 0.00 | 0.00 | 0.00 | 46 | 1007.1 |
| 20260507215503 | 11 | 279 | 4.8 | 19.3 | 0.00 | 0.00 | 0.00 | 48 | 1007.2 |
| 20260507215004 | 11 | 268 | 12.9 | 25.7 | 0.00 | 0.00 | 0.00 | 47 | 1007.2 |
| 20260507214504 | 11 | 272 | 8.0 | 16.1 | 0.00 | 0.00 | 0.00 | 48 | 1007.2 |
| 20260507214003 | 11 | 259 | 12.9 | 24.1 | 0.00 | 0.00 | 0.00 | 48 | 1007.2 |
| 20260507213503 | 11 | 265 | 9.7 | 16.1 | 0.00 | 0.00 | 0.00 | 49 | 1007.2 |
| 20260507212504 | 11 | 269 | 14.5 | 20.9 | 0.00 | 0.00 | 0.00 | 49 | 1007.1 |
| 20260507212003 | 11 | 280 | 12.9 | 25.7 | 0.00 | 0.00 | 0.00 | 48 | 1007.0 |
| 20260507211503 | 11 | 283 | 12.9 | 25.7 | 0.00 | 0.00 | 0.00 | 48 | 1007.1 |
| 20260507211003 | 11 | 278 | 11.3 | 19.3 | 0.00 | 0.00 | 0.00 | 49 | 1007.0 |
| 20260507210503 | 11 | 269 | 9.7 | 25.7 | 0.00 | 0.00 | 0.00 | 49 | 1007.0 |
| 20260507210003 | 10 | 277 | 14.5 | 25.7 | 0.00 | 0.00 | 0.00 | 49 | 1007.0 |
| 20260507205503 | 11 | 281 | 14.5 | 22.5 | 0.00 | 0.00 | 0.00 | 49 | 1007.0 |
| 20260507205003 | 11 | 286 | 14.5 | 32.2 | 0.00 | 0.00 | 0.00 | 49 | 1007.0 |
| 20260507204504 | 11 | 289 | 11.3 | 22.5 | 0.00 | 0.00 | 0.00 | 48 | 1006.9 |
| 20260507203503 | 10 | 277 | 9.7 | 24.1 | 0.00 | 0.00 | 0.00 | 49 | 1006.8 |
| 20260507203003 | 10 | 274 | 11.3 | 24.1 | 0.00 | 0.00 | 0.00 | 49 | 1006.8 |
| 20260507202504 | 10 | 274 | 12.9 | 22.5 | 0.00 | 0.00 | 0.00 | 48 | 1006.8 |
| 20260507202005 | 10 | 275 | 16.1 | 27.4 | 0.00 | 0.00 | 0.00 | 47 | 1006.8 |
| 20260507201504 | 11 | 278 | 14.5 | 27.4 | 0.00 | 0.00 | 0.00 | 47 | 1006.8 |
| 20260507201004 | 11 | 278 | 11.3 | 27.4 | 0.00 | 0.00 | 0.00 | 48 | 1006.9 |
| 20260507200504 | 11 | 258 | 19.3 | 32.2 | 0.00 | 0.00 | 0.00 | 46 | 1006.9 |
| 20260507200003 | 11 | 282 | 16.1 | 32.2 | 0.00 | 0.00 | 0.00 | 46 | 1006.9 |
| 20260507195503 | 11 | 272 | 9.7 | 27.4 | 0.00 | 0.00 | 0.00 | 46 | 1006.8 |
| 20260507195004 | 11 | 282 | 14.5 | 25.7 | 0.00 | 0.00 | 0.00 | 45 | 1006.8 |
| 20260507194504 | 11 | 292 | 11.3 | 29.0 | 0.00 | 0.00 | 0.00 | 45 | 1006.8 |
| 20260507194003 | 11 | 278 | 12.9 | 22.5 | 0.00 | 0.00 | 0.00 | 46 | 1006.9 |
| 20260507193503 | 11 | 277 | 16.1 | 29.0 | 0.00 | 0.00 | 0.00 | 46 | 1006.8 |
| 20260507193003 | 11 | 270 | 14.5 | 25.7 | 0.00 | 0.00 | 0.00 | 47 | 1006.9 |
| 20260507192503 | 11 | 266 | 12.9 | 24.1 | 0.00 | 0.00 | 0.00 | 48 | 1006.9 |
| 20260507192004 | 10 | 282 | 9.7 | 19.3 | 0.00 | 0.00 | 0.00 | 49 | 1007.0 |
| 20260507191504 | 10 | 265 | 17.7 | 27.4 | 0.00 | 0.00 | 0.00 | 47 | 1007.0 |
| 20260507191003 | 10 | 282 | 16.1 | 32.2 | 0.00 | 0.00 | 0.00 | 47 | 1007.0 |
| 20260507190004 | 10 | 263 | 14.5 | 22.5 | 0.00 | 0.00 | 0.00 | 47 | 1007.1 |
| 20260507185504 | 10 | 272 | 14.5 | 24.1 | 0.00 | 0.00 | 0.00 | 47 | 1007.1 |
| 20260507185003 | 10 | 271 | 8.0 | 24.1 | 0.00 | 0.00 | 0.00 | 49 | 1007.0 |
| 20260507184504 | 10 | 276 | 14.5 | 22.5 | 0.00 | 0.00 | 0.00 | 48 | 1007.2 |
| 20260507184005 | 10 | 273 | 11.3 | 25.7 | 0.00 | 0.00 | 0.00 | 48 | 1007.1 |
| 20260507183504 | 10 | 276 | 12.9 | 32.2 | 0.00 | 0.00 | 0.00 | 48 | 1007.1 |
| 20260507183004 | 10 | 280 | 16.1 | 32.2 | 0.00 | 0.00 | 0.00 | 47 | 1007.1 |
| 20260507182503 | 10 | 292 | 16.1 | 24.1 | 0.00 | 0.00 | 0.00 | 47 | 1007.0 |
| 20260507182003 | 10 | 279 | 14.5 | 22.5 | 0.00 | 0.00 | 0.00 | 46 | 1006.9 |
| 20260507181504 | 10 | 273 | 11.3 | 27.4 | 0.00 | 0.00 | 0.00 | 45 | 1006.8 |
| 20260507181003 | 11 | 267 | 14.5 | 25.7 | 0.00 | 0.00 | 0.00 | 45 | 1006.9 |
| 20260507180503 | 11 | 243 | 17.7 | 32.2 | 0.00 | 0.00 | 0.00 | 45 | 1006.8 |
| 20260507180004 | 11 | 258 | 11.3 | 32.2 | 0.00 | 0.00 | 0.00 | 47 | 1006.8 |
| 20260507175003 | 10 | 249 | 16.1 | 35.4 | 0.00 | 0.00 | 0.00 | 45 | 1006.8 |
| 20260507174003 | 10 | 259 | 14.5 | 32.2 | 0.00 | 0.00 | 0.00 | 46 | 1006.7 |
| 20260507173004 | 10 | 264 | 14.5 | 35.4 | 0.00 | 0.00 | 0.00 | 47 | 1006.8 |
| 20260507171503 | 11 | 267 | 8.0 | 19.3 | 0.00 | 0.03 | 0.00 | 50 | 1006.9 |
| 20260507171004 | 10 | 249 | 9.7 | 20.9 | 0.00 | 0.03 | 0.00 | 50 | 1007.0 |
| 20260507170503 | 10 | 261 | 14.5 | 38.6 | 0.00 | 0.03 | 0.00 | 49 | 1007.0 |
| 20260507170004 | 10 | 261 | 20.9 | 33.8 | 0.00 | 0.03 | 0.00 | 48 | 1007.0 |
| 20260507165503 | 10 | 252 | 19.3 | 33.8 | 0.00 | 0.03 | 0.00 | 48 | 1007.0 |
| 20260507164503 | 10 | 275 | 11.3 | 27.4 | 0.00 | 0.03 | 0.00 | 48 | 1007.0 |
| 20260507164004 | 11 | 261 | 22.5 | 41.8 | 0.00 | 0.03 | 0.00 | 46 | 1007.1 |
| 20260507163503 | 11 | 274 | 16.1 | 32.2 | 0.00 | 0.03 | 0.00 | 48 | 1007.1 |
| 20260507163003 | 10 | 250 | 9.7 | 32.2 | 0.00 | 0.05 | 0.00 | 53 | 1007.1 |
| 20260507162504 | 10 | 258 | 24.1 | 41.8 | 0.00 | 0.05 | 0.00 | 51 | 1007.2 |
| 20260507162003 | 10 | 264 | 20.9 | 35.4 | 0.00 | 0.05 | 0.00 | 51 | 1007.2 |
| 20260507161503 | 10 | 254 | 19.3 | 38.6 | 0.00 | 0.05 | 0.00 | 52 | 1007.2 |
| 20260507161003 | 10 | 269 | 16.1 | 37.0 | 0.00 | 0.05 | 0.00 | 51 | 1007.2 |
| 20260507160504 | 10 | 261 | 20.9 | 35.4 | 0.00 | 0.05 | 0.00 | 51 | 1007.3 |
| 20260507160004 | 10 | 247 | 16.1 | 32.2 | 0.00 | 0.05 | 0.00 | 51 | 1007.3 |
| 20260507155503 | 10 | 268 | 22.5 | 40.2 | 0.00 | 0.08 | 0.00 | 51 | 1007.1 |
| 20260507154503 | 10 | 263 | 17.7 | 41.8 | 0.00 | 0.10 | 0.00 | 55 | 1007.3 |
| 20260507154004 | 9 | 258 | 16.1 | 32.2 | 0.00 | 0.13 | 0.00 | 57 | 1007.2 |
| 20260507153003 | 9 | 269 | 16.1 | 33.8 | 0.00 | 0.15 | 0.00 | 59 | 1007.1 |
| 20260507152504 | 9 | 259 | 20.9 | 38.6 | 0.00 | 0.18 | 0.00 | 58 | 1007.3 |
| 20260507152003 | 9 | 249 | 16.1 | 32.2 | 0.00 | 0.20 | 0.00 | 58 | 1007.2 |
| 20260507151503 | 9 | 250 | 16.1 | 27.4 | 0.00 | 0.23 | 0.00 | 59 | 1007.1 |
| 20260507150005 | 10 | 269 | 12.9 | 33.8 | 0.00 | 0.25 | 0.00 | 58 | 1007.1 |
| 20260507145503 | 10 | 255 | 14.5 | 24.1 | 0.00 | 0.25 | 0.00 | 60 | 1007.1 |
| 20260507145003 | 10 | 237 | 9.7 | 25.7 | 0.00 | 0.28 | 0.00 | 62 | 1007.0 |
| 20260507144003 | 9 | 267 | 20.9 | 32.2 | 0.00 | 0.30 | 0.00 | 59 | 1007.1 |
| 20260507143504 | 9 | 261 | 12.9 | 27.4 | 0.00 | 0.30 | 0.00 | 62 | 1007.2 |
| 20260507143004 | 8 | 245 | 12.9 | 27.4 | 0.00 | 0.33 | 0.00 | 62 | 1007.2 |
| 20260507142504 | 8 | 259 | 11.3 | 32.2 | 0.00 | 0.33 | 0.00 | 62 | 1007.3 |
| 20260507141003 | 8 | 246 | 17.7 | 32.2 | 0.00 | 0.36 | 0.00 | 62 | 1007.4 |
| 20260507140503 | 8 | 250 | 14.5 | 33.8 | 0.00 | 0.38 | 0.00 | 63 | 1007.3 |
| 20260507140003 | 8 | 247 | 16.1 | 33.8 | 0.00 | 0.38 | 0.00 | 63 | 1007.5 |
| 20260507135503 | 8 | 247 | 8.0 | 25.7 | 0.00 | 0.38 | 0.00 | 65 | 1007.4 |
| 20260507135003 | 8 | 250 | 16.1 | 29.0 | 0.00 | 0.38 | 0.00 | 64 | 1007.4 |
| 20260507134503 | 8 | 261 | 19.3 | 32.2 | 0.00 | 0.41 | 0.00 | 63 | 1007.3 |
| 20260507134003 | 8 | 246 | 16.1 | 29.0 | 0.00 | 0.41 | 0.00 | 64 | 1007.4 |
| 20260507133504 | 8 | 261 | 14.5 | 27.4 | 0.00 | 0.41 | 0.00 | 65 | 1007.4 |
| 20260507132004 | 7 | 253 | 16.1 | 32.2 | 0.00 | 0.43 | 0.00 | 66 | 1007.4 |
| 20260507131503 | 7 | 260 | 14.5 | 32.2 | 0.00 | 0.43 | 0.00 | 66 | 1007.5 |
| 20260507130504 | 7 | 239 | 11.3 | 33.8 | 0.00 | 0.43 | 0.00 | 67 | 1007.5 |
| 20260507130003 | 7 | 260 | 19.3 | 32.2 | 0.00 | 0.43 | 0.00 | 66 | 1007.4 |
| 20260507125503 | 7 | 254 | 14.5 | 27.4 | 0.00 | 0.46 | 0.00 | 69 | 1007.5 |
| 20260507125004 | 7 | 252 | 9.7 | 27.4 | 0.00 | 0.46 | 0.00 | 68 | 1007.4 |
| 20260507124503 | 7 | 246 | 14.5 | 32.2 | 0.00 | 0.46 | 0.00 | 68 | 1007.4 |
| 20260507123503 | 7 | 255 | 14.5 | 27.4 | 0.00 | 0.48 | 0.00 | 69 | 1007.5 |
| 20260507123003 | 7 | 241 | 11.3 | 29.0 | 0.00 | 0.48 | 0.00 | 70 | 1007.4 |
| 20260507122004 | 7 | 252 | 16.1 | 35.4 | 0.00 | 0.51 | 0.00 | 69 | 1007.4 |
| 20260507121503 | 7 | 258 | 9.7 | 27.4 | 0.00 | 0.51 | 0.00 | 70 | 1007.5 |
| 20260507121004 | 6 | 252 | 14.5 | 32.2 | 0.00 | 0.53 | 0.00 | 71 | 1007.5 |
| 20260507120503 | 6 | 256 | 19.3 | 32.2 | 0.00 | 0.53 | 0.00 | 70 | 1007.4 |
| 20260507120005 | 6 | 235 | 14.5 | 37.0 | 0.00 | 0.56 | 0.00 | 72 | 1007.4 |
| 20260507115503 | 6 | 248 | 14.5 | 27.4 | 0.00 | 0.56 | 0.00 | 73 | 1007.3 |
| 20260507114503 | 6 | 242 | 14.5 | 32.2 | 0.00 | 0.61 | 0.00 | 77 | 1007.3 |
| 20260507114004 | 6 | 262 | 11.3 | 22.5 | 0.00 | 0.61 | 0.00 | 80 | 1007.3 |
| 20260507113503 | 6 | 268 | 11.3 | 22.5 | 0.00 | 0.61 | 0.00 | 81 | 1007.3 |
| 20260507113004 | 6 | 238 | 14.5 | 25.7 | 0.00 | 0.64 | 0.00 | 82 | 1007.3 |
| 20260507112503 | 6 | 259 | 9.7 | 33.8 | 0.00 | 0.66 | 0.00 | 83 | 1007.2 |
| 20260507112004 | 6 | 251 | 12.9 | 33.8 | 0.00 | 0.66 | 0.00 | 83 | 1007.2 |
| 20260507111504 | 6 | 249 | 14.5 | 29.0 | 0.00 | 0.69 | 0.00 | 83 | 1007.2 |
| 20260507111003 | 6 | 238 | 11.3 | 29.0 | 0.00 | 0.71 | 0.00 | 84 | 1007.2 |
| 20260507105503 | 6 | 257 | 11.3 | 24.1 | 0.00 | 0.71 | 0.00 | 86 | 1007.0 |
| 20260507105003 | 6 | 253 | 4.8 | 19.3 | 0.00 | 0.74 | 0.00 | 87 | 1006.9 |
| 20260507104504 | 6 | 245 | 6.4 | 19.3 | 0.00 | 0.74 | 0.00 | 87 | 1006.8 |
| 20260507103003 | 6 | 255 | 8.0 | 16.1 | 0.00 | 0.76 | 0.00 | 87 | 1006.7 |
| 20260507102504 | 6 | 238 | 9.7 | 22.5 | 0.00 | 0.76 | 0.00 | 87 | 1006.6 |
| 20260507101503 | 7 | 250 | 8.0 | 14.5 | 0.00 | 0.76 | 0.00 | 87 | 1006.6 |
| 20260507101003 | 7 | 249 | 11.3 | 22.5 | 0.00 | 0.79 | 0.00 | 87 | 1006.6 |
| 20260507100503 | 7 | 249 | 6.4 | 12.9 | 0.00 | 0.79 | 0.00 | 87 | 1006.6 |
| 20260507100004 | 7 | 249 | 8.0 | 20.9 | 0.00 | 0.79 | 0.00 | 87 | 1006.5 |
| 20260507095503 | 7 | 252 | 8.0 | 20.9 | 0.00 | 0.79 | 0.00 | 87 | 1006.5 |
| 20260507095004 | 7 | 274 | 8.0 | 29.0 | 0.00 | 0.79 | 0.00 | 87 | 1006.7 |
| 20260507094504 | 7 | 255 | 11.3 | 25.7 | 0.00 | 0.79 | 0.00 | 88 | 1006.6 |
| 20260507094003 | 7 | 263 | 8.0 | 22.5 | 0.00 | 0.79 | 0.00 | 88 | 1006.6 |
| 20260507093503 | 7 | 244 | 11.3 | 24.1 | 0.00 | 0.79 | 0.00 | 88 | 1006.6 |
| 20260507093004 | 7 | 257 | 12.9 | 22.5 | 0.00 | 0.79 | 0.00 | 88 | 1006.7 |
| 20260507092503 | 7 | 249 | 11.3 | 25.7 | 0.00 | 0.79 | 0.00 | 89 | 1006.7 |
| 20260507092003 | 7 | 247 | 9.7 | 19.3 | 0.00 | 0.79 | 0.00 | 88 | 1006.6 |
| 20260507091503 | 7 | 248 | 6.4 | 20.9 | 0.00 | 0.79 | 0.00 | 89 | 1006.6 |
| 20260507091003 | 7 | 260 | 11.3 | 20.9 | 0.00 | 0.79 | 0.00 | 89 | 1006.5 |
| 20260507090504 | 7 | 277 | 4.8 | 14.5 | 0.00 | 0.79 | 0.00 | 89 | 1006.5 |
| 20260507085503 | 7 | 256 | 4.8 | 20.9 | 0.00 | 0.79 | 0.00 | 89 | 1006.5 |
| 20260507085003 | 7 | 245 | 4.8 | 16.1 | 0.00 | 0.79 | 0.00 | 89 | 1006.4 |
| 20260507084503 | 7 | 240 | 4.8 | 19.3 | 0.00 | 0.79 | 0.00 | 89 | 1006.4 |
| 20260507084004 | 7 | 250 | 6.4 | 14.5 | 0.00 | 0.79 | 0.00 | 89 | 1006.5 |
| 20260507083504 | 7 | 240 | 4.8 | 16.1 | 0.00 | 0.79 | 0.00 | 89 | 1006.5 |
| 20260507083003 | 7 | 259 | 8.0 | 16.1 | 0.00 | 0.79 | 0.00 | 89 | 1006.5 |
| 20260507082503 | 7 | 262 | 4.8 | 19.3 | 0.00 | 0.79 | 0.00 | 89 | 1006.5 |
| 20260507081504 | 7 | 258 | 3.2 | 14.5 | 0.00 | 0.79 | 0.00 | 89 | 1006.6 |
| 20260507081003 | 7 | 250 | 4.8 | 19.3 | 0.00 | 0.79 | 0.00 | 89 | 1006.7 |
| 20260507080503 | 7 | 266 | 9.7 | 19.3 | 0.00 | 0.79 | 0.00 | 89 | 1006.7 |
| 20260507080004 | 7 | 235 | 4.8 | 12.9 | 0.00 | 0.79 | 0.00 | 89 | 1006.8 |
| 20260507075503 | 7 | 275 | 4.8 | 16.1 | 0.00 | 0.79 | 0.00 | 89 | 1006.7 |
| 20260507075004 | 7 | 247 | 8.0 | 16.1 | 0.00 | 0.79 | 0.00 | 89 | 1006.8 |
| 20260507074503 | 7 | 263 | 1.6 | 9.7 | 0.00 | 0.79 | 0.00 | 89 | 1006.8 |
| 20260507074003 | 7 | 255 | 4.8 | 16.1 | 0.00 | 0.79 | 0.00 | 89 | 1007.0 |
| 20260507073504 | 7 | 252 | 4.8 | 16.1 | 0.00 | 0.79 | 0.00 | 89 | 1006.9 |
| 20260507073003 | 7 | 256 | 4.8 | 19.3 | 0.00 | 0.79 | 0.00 | 89 | 1006.9 |
| 20260507072504 | 7 | 255 | 8.0 | 16.1 | 0.00 | 0.79 | 0.00 | 89 | 1006.8 |
| 20260507072004 | 7 | 258 | 4.8 | 12.9 | 0.00 | 0.79 | 0.00 | 89 | 1006.8 |
| 20260507071003 | 7 | 256 | 4.8 | 14.5 | 0.00 | 0.79 | 0.00 | 89 | 1006.8 |
| 20260507070504 | 7 | 250 | 8.0 | 20.9 | 0.00 | 0.79 | 0.00 | 89 | 1006.8 |
| 20260507070008 | 7 | 247 | 8.0 | 16.1 | 0.00 | 0.79 | 0.00 | 90 | 1006.8 |
| 20260507065503 | 7 | 248 | 8.0 | 16.1 | 0.00 | 0.79 | 0.00 | 89 | 1006.7 |
| 20260507065003 | 7 | 265 | 4.8 | 20.9 | 0.00 | 0.79 | 0.00 | 89 | 1006.7 |
| 20260507064503 | 6 | 266 | 6.4 | 19.3 | 0.00 | 0.79 | 0.00 | 89 | 1006.7 |
| 20260507064004 | 6 | 237 | 9.7 | 16.1 | 0.00 | 0.79 | 0.00 | 90 | 1006.7 |
| 20260507063503 | 6 | 260 | 8.0 | 19.3 | 0.00 | 0.79 | 0.00 | 90 | 1006.8 |
| 20260507063004 | 6 | 251 | 8.0 | 19.3 | 0.00 | 0.79 | 0.00 | 90 | 1006.8 |
| 20260507062503 | 6 | 263 | 6.4 | 14.5 | 0.00 | 0.79 | 0.00 | 90 | 1006.8 |
| 20260507061505 | 6 | 233 | 4.8 | 12.9 | 0.00 | 0.79 | 0.00 | 90 | 1007.0 |
| 20260507061003 | 6 | 264 | 4.8 | 12.9 | 0.00 | 0.79 | 0.00 | 90 | 1006.9 |
| 20260507060503 | 6 | 260 | 1.6 | 11.3 | 0.00 | 0.79 | 0.00 | 90 | 1007.0 |
| 20260507060004 | 6 | 250 | 3.2 | 14.5 | 0.00 | 0.79 | 0.00 | 90 | 1007.1 |
| 20260507055503 | 6 | 239 | 3.2 | 14.5 | 0.00 | 0.79 | 0.00 | 90 | 1007.2 |
| 20260507055004 | 6 | 236 | 3.2 | 11.3 | 0.00 | 0.79 | 0.00 | 90 | 1007.2 |
| 20260507054503 | 6 | 242 | 1.6 | 11.3 | 0.00 | 0.79 | 0.00 | 90 | 1007.2 |
| 20260507054003 | 6 | 221 | 0.0 | 4.8 | 0.00 | 0.79 | 0.00 | 90 | 1007.3 |
| 20260507053503 | 6 | 240 | 1.6 | 9.7 | 0.00 | 0.79 | 0.00 | 90 | 1007.3 |
| 20260507053004 | 6 | 276 | 1.6 | 12.9 | 0.00 | 0.79 | 0.00 | 90 | 1007.3 |
| 20260507052503 | 6 | 255 | 1.6 | 12.9 | 0.00 | 0.79 | 0.00 | 90 | 1007.4 |
| 20260507052003 | 6 | 256 | 3.2 | 11.3 | 0.00 | 0.79 | 0.00 | 90 | 1007.4 |
| 20260507051503 | 6 | 238 | 3.2 | 11.3 | 0.00 | 0.79 | 0.00 | 90 | 1007.4 |
| 20260507051004 | 6 | 259 | 3.2 | 8.0 | 0.00 | 0.79 | 0.00 | 90 | 1007.4 |
| 20260507050503 | 6 | 246 | 3.2 | 9.7 | 0.00 | 0.79 | 0.00 | 90 | 1007.4 |
| 20260507050003 | 6 | 251 | 4.8 | 12.9 | 0.00 | 0.79 | 0.00 | 90 | 1007.5 |
| 20260507045503 | 6 | 251 | 1.6 | 11.3 | 0.00 | 0.79 | 0.00 | 90 | 1007.7 |
| 20260507045003 | 6 | 253 | 4.8 | 12.9 | 0.00 | 0.79 | 0.00 | 90 | 1007.8 |
| 20260507044504 | 6 | 251 | 1.6 | 11.3 | 0.00 | 0.79 | 0.00 | 90 | 1007.9 |
| 20260507044003 | 6 | 265 | 1.6 | 9.7 | 0.00 | 0.79 | 0.00 | 90 | 1008.0 |
| 20260507043503 | 6 | 239 | 1.6 | 11.3 | 0.00 | 0.79 | 0.00 | 90 | 1008.0 |
| 20260507043003 | 6 | 255 | 1.6 | 11.3 | 0.00 | 0.79 | 0.00 | 90 | 1008.1 |
| 20260507042004 | 6 | 258 | 3.2 | 11.3 | 0.00 | 0.79 | 0.00 | 90 | 1008.1 |
| 20260507040004 | 6 | 256 | 0.0 | 0.0 | 0.00 | 0.79 | 0.00 | 90 | 1008.2 |
| 20260507035504 | 6 | 267 | 0.0 | 4.8 | 0.00 | 0.79 | 0.79 | 90 | 1008.3 |
| 20260507035003 | 6 | 250 | 1.6 | 11.3 | 0.00 | 0.79 | 0.79 | 90 | 1008.3 |
| 20260507034503 | 6 | 239 | 0.0 | 0.0 | 0.00 | 0.79 | 0.79 | 90 | 1008.3 |
| 20260507033004 | 6 | 246 | 0.0 | 0.0 | 0.00 | 0.79 | 0.79 | 90 | 1008.4 |
| 20260507032503 | 6 | 246 | 0.0 | 0.0 | 0.00 | 0.79 | 0.79 | 89 | 1008.4 |
| 20260507032004 | 6 | 249 | 0.0 | 0.0 | 0.00 | 0.79 | 0.79 | 89 | 1008.4 |
| 20260507031004 | 6 | 266 | 0.0 | 0.0 | 0.00 | 0.81 | 0.79 | 89 | 1008.5 |
| 20260507030503 | 6 | 273 | 0.0 | 0.0 | 0.00 | 0.81 | 0.79 | 89 | 1008.5 |
| 20260507025503 | 6 | 271 | 0.0 | 0.0 | 0.00 | 0.81 | 0.79 | 89 | 1008.5 |
| 20260507025004 | 7 | 270 | 0.0 | 0.0 | 0.00 | 0.81 | 0.79 | 89 | 1008.5 |
| 20260507024004 | 7 | 271 | 0.0 | 0.0 | 0.00 | 0.81 | 0.79 | 89 | 1008.6 |
| 20260507023503 | 7 | 270 | 0.0 | 0.0 | 0.00 | 0.81 | 0.79 | 89 | 1008.6 |
| 20260507023004 | 7 | 271 | 0.0 | 0.0 | 0.00 | 0.81 | 0.79 | 88 | 1008.6 |
| 20260507022503 | 7 | 271 | 0.0 | 0.0 | 0.00 | 0.81 | 0.79 | 88 | 1008.6 |
| 20260507022003 | 7 | 273 | 0.0 | 0.0 | 0.00 | 0.81 | 0.79 | 88 | 1008.6 |
| 20260507021503 | 7 | 271 | 0.0 | 0.0 | 0.00 | 0.81 | 0.79 | 88 | 1008.6 |
| 20260507021004 | 7 | 270 | 0.0 | 0.0 | 0.00 | 0.81 | 0.79 | 88 | 1008.6 |